Fort Payne, AL

4:15 AM CST on December 14, 2017 (GMT -0600)
Fort Payne

Weather History for K4A9 - March, 2013

Change the Weather History Date:

Wednesday, March 6, 2013

  Actual Average (KRMG) Record (KRMG)
Temperature  
Mean Temperature 36 °F -  
Max Temperature 41 °F 59 °F 74 °F (2017)
Min Temperature 28 °F 37 °F 23 °F (2015)
Degree Days  
Heating Degree Days 30    
Moisture  
Dew Point 23 °F    
Average Humidity 62    
Maximum Humidity 80    
Minimum Humidity 52    
Precipitation  
Precipitation 0.00 in - - ()
Sea Level Pressure  
Sea Level Pressure 30.14 in    
Wind  
Wind Speed 10 mph (NW)    
Max Wind Speed 18 mph    
Max Gust Speed 29 mph    
Visibility 10 miles    
Events Snow    
Averages and records for this station are not official NWS values.
T = Trace of Precipitation, MM = Missing Value Source: NWS Daily Summary

Daily Weather History Graph

Daily Weather History Graph

Search for Another Location

Airport or City:

Trip Planner

Search our weather history database for the weather conditions in past years. The results will help you decide how hot, cold, wet, or windy it might be!

Date:

Astronomy

Mar. 06, 2013 Rise Set
Actual Time 6:05 AM CST 5:43 PM CST
Civil Twilight 5:40 AM CST 6:08 PM CST
Nautical Twilight 5:10 AM CST 6:37 PM CST
Astronomical Twilight 4:41 AM CST 7:06 PM CST
Moon 2:03 AM CST (3/6) 12:34 PM CST (3/6)
Length of Visible Light 12h 28m
Length of Day
11h 38m
Waning Crescent, 29% of the Moon is Illuminated
Mar 6
Waning Crescent
Mar 11
New
Mar 19
First Quarter
Mar 27
Full
Apr 2
Last Quarter

Hourly Weather History & Observations

Time (CST) Temp. Windchill Dew Point Humidity Pressure Visibility Wind Dir Wind Speed Gust Speed Precip Events Conditions
12:15 AM 33.8 °F 23.9 °F 26.6 °F 75% 29.99 in 10.0 mi NW 15.0 mph 24.2 mph N/A   Mostly Cloudy
12:35 AM 33.8 °F 25.8 °F 23.0 °F 65% 30.00 in 10.0 mi WNW 10.4 mph 18.4 mph N/A   Mostly Cloudy
12:55 AM 33.8 °F 26.4 °F 19.4 °F 56% 30.00 in 10.0 mi WNW 9.2 mph - N/A   Overcast
1:15 AM 33.8 °F 26.4 °F 17.6 °F 52% 30.00 in 10.0 mi WNW 9.2 mph 19.6 mph N/A   Mostly Cloudy
1:35 AM 32.0 °F 22.5 °F 17.6 °F 55% 30.01 in 10.0 mi West 12.7 mph 19.6 mph N/A   Scattered Clouds
1:55 AM 32.0 °F 24.8 °F 17.6 °F 55% 30.01 in 10.0 mi WNW 8.1 mph 16.1 mph N/A   Clear
2:15 AM 32.0 °F 23.0 °F 17.6 °F 55% 30.01 in 10.0 mi West 11.5 mph 16.1 mph N/A   Clear
2:35 AM 32.0 °F 23.6 °F 17.6 °F 55% 30.01 in 10.0 mi West 10.4 mph 20.7 mph N/A   Clear
2:55 AM 32.0 °F 24.2 °F 17.6 °F 55% 30.01 in 10.0 mi WNW 9.2 mph - N/A   Scattered Clouds
3:15 AM 32.0 °F 22.5 °F 17.6 °F 55% 30.01 in 10.0 mi West 12.7 mph 19.6 mph N/A   Overcast
3:35 AM 32.0 °F 21.6 °F 17.6 °F 55% 30.01 in 10.0 mi WNW 15.0 mph 20.7 mph N/A   Overcast
3:55 AM 32.0 °F 24.2 °F 19.4 °F 60% 30.01 in 10.0 mi WNW 9.2 mph 19.6 mph N/A   Overcast
4:15 AM 32.0 °F 23.6 °F 19.4 °F 60% 30.02 in 10.0 mi WNW 10.4 mph 19.6 mph N/A   Overcast
4:35 AM 32.0 °F 23.0 °F 19.4 °F 60% 30.03 in 10.0 mi West 11.5 mph 18.4 mph N/A   Overcast
4:55 AM 32.0 °F - 19.4 °F 60% 30.04 in 10.0 mi Calm Calm - N/A   Overcast
5:55 AM 33.8 °F 24.3 °F 19.4 °F 56% 30.07 in 10.0 mi NW 13.8 mph 20.7 mph N/A   Overcast
6:15 AM 33.8 °F 24.8 °F 19.4 °F 56% 30.08 in 10.0 mi NW 12.7 mph 23.0 mph N/A   Overcast
6:35 AM 33.8 °F 27.0 °F 21.2 °F 60% 30.08 in 10.0 mi NW 8.1 mph - N/A   Overcast
6:55 AM 33.8 °F 25.3 °F 21.2 °F 60% 30.08 in 10.0 mi NW 11.5 mph 28.8 mph N/A   Overcast
7:15 AM 32.0 °F 23.0 °F 21.2 °F 64% 30.10 in 10.0 mi WNW 11.5 mph 20.7 mph N/A   Overcast
7:35 AM 33.8 °F 27.7 °F 23.0 °F 65% 30.12 in 10.0 mi WNW 6.9 mph - N/A   Overcast
7:55 AM 32.0 °F 22.5 °F 24.8 °F 75% 30.13 in 4.0 mi NW 12.7 mph 25.3 mph N/A Snow Light Snow
8:15 AM 32.0 °F 26.4 °F 26.6 °F 80% 30.14 in 3.0 mi NW 5.8 mph 17.3 mph N/A Snow Light Snow
8:35 AM 32.0 °F 24.2 °F 24.8 °F 75% 30.14 in 10.0 mi WNW 9.2 mph - N/A   Overcast
8:55 AM 33.8 °F 25.8 °F 23.0 °F 65% 30.14 in 10.0 mi NW 10.4 mph 20.7 mph N/A   Overcast
9:15 AM 33.8 °F 23.9 °F 23.0 °F 65% 30.15 in 10.0 mi NW 15.0 mph 23.0 mph N/A   Overcast
9:35 AM 33.8 °F 23.9 °F 21.2 °F 60% 30.15 in 10.0 mi NNW 15.0 mph 25.3 mph N/A   Overcast
9:55 AM 35.6 °F 27.1 °F 23.0 °F 60% 30.15 in 10.0 mi NNW 12.7 mph 19.6 mph N/A   Overcast
10:15 AM 35.6 °F 25.2 °F 23.0 °F 60% 30.16 in 10.0 mi North 18.4 mph 24.2 mph N/A   Overcast
10:35 AM 35.6 °F 25.5 °F 23.0 °F 60% 30.16 in 10.0 mi NNW 17.3 mph 24.2 mph N/A   Mostly Cloudy
10:55 AM 35.6 °F 26.6 °F 23.0 °F 60% 30.17 in 10.0 mi NNW 13.8 mph 21.9 mph N/A   Overcast
11:15 AM 35.6 °F 25.5 °F 23.0 °F 60% 30.17 in 10.0 mi NNW 17.3 mph 27.6 mph N/A   Overcast
11:35 AM 37.4 °F 28.9 °F 23.0 °F 56% 30.17 in 10.0 mi NNW 13.8 mph 24.2 mph N/A   Overcast
11:55 AM 37.4 °F 29.8 °F 23.0 °F 56% 30.18 in 10.0 mi NNW 11.5 mph 24.2 mph N/A   Overcast
12:15 PM 37.4 °F 28.9 °F 23.0 °F 56% 30.18 in 10.0 mi NW 13.8 mph 24.2 mph N/A   Overcast
12:35 PM 37.4 °F 28.9 °F 24.8 °F 60% 30.17 in 10.0 mi NNW 13.8 mph 23.0 mph N/A   Overcast
12:55 PM 37.4 °F 30.3 °F 24.8 °F 60% 30.17 in 10.0 mi NNW 10.4 mph 18.4 mph N/A   Overcast
1:15 PM 37.4 °F 29.8 °F 24.8 °F 60% 30.17 in 10.0 mi NW 11.5 mph 19.6 mph N/A   Overcast
1:35 PM 39.2 °F 32.0 °F 24.8 °F 56% 30.17 in 10.0 mi North 11.5 mph - N/A   Overcast
1:55 PM 39.2 °F 32.5 °F 26.6 °F 61% 30.17 in 10.0 mi NNW 10.4 mph - N/A   Overcast
2:15 PM 41.0 °F 34.3 °F 26.6 °F 57% 30.17 in 10.0 mi NNW 11.5 mph 18.4 mph N/A   Scattered Clouds
2:35 PM 41.0 °F 33.5 °F 26.6 °F 57% 30.17 in 10.0 mi NNW 13.8 mph 17.3 mph N/A   Mostly Cloudy
2:55 PM 41.0 °F 35.8 °F 26.6 °F 57% 30.18 in 10.0 mi NNW 8.1 mph - N/A   Overcast
3:15 PM 41.0 °F 35.2 °F 26.6 °F 57% 30.18 in 10.0 mi North 9.2 mph - N/A   Overcast
3:35 PM 41.0 °F 35.2 °F 26.6 °F 57% 30.18 in 10.0 mi NNW 9.2 mph 18.4 mph N/A   Overcast
3:55 PM 41.0 °F 33.5 °F 26.6 °F 57% 30.19 in 10.0 mi NW 13.8 mph 19.6 mph N/A   Overcast
4:15 PM 41.0 °F 34.7 °F 26.6 °F 57% 30.19 in 10.0 mi NNW 10.4 mph 19.6 mph N/A   Overcast
4:35 PM 41.0 °F 35.2 °F 26.6 °F 57% 30.20 in 10.0 mi North 9.2 mph - N/A   Overcast
4:55 PM 41.0 °F 36.4 °F 26.6 °F 57% 30.21 in 10.0 mi NW 6.9 mph - N/A   Overcast
5:15 PM 41.0 °F 36.4 °F 26.6 °F 57% 30.21 in 10.0 mi North 6.9 mph - N/A   Mostly Cloudy
5:35 PM 39.2 °F 33.6 °F 24.8 °F 56% 30.21 in 10.0 mi North 8.1 mph - N/A   Scattered Clouds
5:55 PM 37.4 °F 33.8 °F 23.0 °F 56% 30.21 in 10.0 mi North 4.6 mph - N/A   Clear
6:15 PM 37.4 °F 32.1 °F 23.0 °F 56% 30.21 in 10.0 mi North 6.9 mph - N/A   Clear
6:35 PM 35.6 °F - 24.8 °F 65% 30.22 in 10.0 mi Calm Calm - N/A   Clear
6:55 PM 35.6 °F - 24.8 °F 65% 30.23 in 10.0 mi Calm Calm - N/A   Clear
7:15 PM 35.6 °F 31.7 °F 24.8 °F 65% 30.23 in 10.0 mi NNE 4.6 mph - N/A   Clear
7:35 PM 33.8 °F 27.7 °F 24.8 °F 70% 30.23 in 10.0 mi NNE 6.9 mph - N/A   Clear
7:55 PM 33.8 °F 28.6 °F 23.0 °F 65% 30.23 in 10.0 mi NNE 5.8 mph - N/A   Clear
8:15 PM 33.8 °F 27.0 °F 23.0 °F 65% 30.22 in 10.0 mi NNE 8.1 mph - N/A   Clear
8:35 PM 33.8 °F 27.0 °F 23.0 °F 65% 30.23 in 10.0 mi North 8.1 mph - N/A   Clear
8:55 PM 33.8 °F 27.0 °F 23.0 °F 65% 30.23 in 10.0 mi North 8.1 mph - N/A   Clear
9:35 PM 32.0 °F 26.4 °F 23.0 °F 69% 30.23 in 10.0 mi North 5.8 mph - N/A   Clear
9:55 PM 32.0 °F 26.4 °F 23.0 °F 69% 30.23 in 10.0 mi North 5.8 mph - N/A   Clear
10:15 PM 32.0 °F - 23.0 °F 69% 30.23 in 10.0 mi Calm Calm - N/A   Clear
10:35 PM 32.0 °F - 23.0 °F 69% 30.23 in 10.0 mi Calm Calm - N/A   Clear
10:55 PM 30.2 °F - 23.0 °F 75% 30.24 in 10.0 mi Calm Calm - N/A   Clear
11:15 PM 30.2 °F - 23.0 °F 75% 30.24 in 10.0 mi Calm Calm - N/A   Clear
11:35 PM 30.2 °F - 24.8 °F 80% 30.24 in 10.0 mi Calm Calm - N/A   Clear
11:55 PM 28.4 °F - 23.0 °F 80% 30.24 in 10.0 mi Calm Calm - N/A   Clear